#�ϑ�����,���ϕ���,���ϕ���,�ő啗��,�ő啗����������,�ő�u�ԕ���,�ő�u�ԕ�����������
#(�N����),(m/s)   ,(16����),(m/s)   ,(16����)        ,(m/s)       ,(16����)            
2012/9/23 2:33,3.7,2,3.7,2,3.7,2
2012/9/23 2:34,2.5,1,3.7,2,3.7,2
2012/9/23 2:35,2.3,2,2.4,2,3.7,2
2012/9/23 2:36,2.1,1,2.2,2,2.9,1
2012/9/23 2:37,1.8,1,2.1,2,1.9,16
2012/9/23 2:38,1.5,1,1.8,2,0.8,1
2012/9/23 2:39,1.3,1,1.5,2,0.9,16
2012/9/23 2:40,1.3,1,1.3,2,2.5,15
2012/9/23 2:41,1.2,16,1.3,2,1.9,16
2012/9/23 2:42,1.2,16,1.2,2,2,14
2012/9/23 2:43,1.2,16,1.2,2,2.6,14
2012/9/23 2:44,1.1,16,1.3,1,2.1,15
2012/9/23 2:45,1.1,15,1.1,1,2.2,14
2012/9/23 2:46,1.1,15,1.1,1,1.9,16
2012/9/23 2:47,1.1,15,1.1,1,2,1
2012/9/23 2:48,1.2,15,1.2,1,2,1
2012/9/23 2:49,1.4,15,1.4,15,2.5,1
2012/9/23 2:50,1.5,16,1.5,16,2.4,1
2012/9/23 2:51,1.5,16,1.5,16,2.5,16
2012/9/23 2:52,1.5,16,1.5,16,1.3,1
2012/9/23 2:53,1.4,1,1.5,16,1.5,3
2012/9/23 2:54,1.3,1,1.4,16,1,3
2012/9/23 2:55,1.2,1,1.3,16,1,2
2012/9/23 2:56,1.1,2,1.2,16,1.1,4
2012/9/23 2:57,1,2,1.1,16,1,4
2012/9/23 2:58,0.9,2,1,16,0.5,5
2012/9/23 2:59,0.7,3,0.9,16,0.5,4
2012/9/23 3:00,0.6,3,0.7,16,1,16
2012/9/23 3:01,0.5,3,0.5,16,1.1,16
2012/9/23 3:02,0.4,3,0.5,16,0.5,4
2012/9/23 3:03,0.4,3,0.4,1,0.9,3
2012/9/23 3:04,0.3,2,0.4,1,0.8,16
2012/9/23 3:05,0.3,2,0.3,1,0.8,1
2012/9/23 3:06,0.4,2,0.4,2,0.9,16
2012/9/23 3:07,0.4,2,0.4,2,1.3,16
2012/9/23 3:08,0.4,1,0.4,2,0.8,2
2012/9/23 3:09,0.5,1,0.5,3,1,2
2012/9/23 3:10,0.5,2,0.5,3,1.5,3
2012/9/23 3:11,0.6,2,0.6,2,1.6,3
2012/9/23 3:12,0.6,2,0.6,2,1.3,3
2012/9/23 3:13,0.7,2,0.7,2,1.3,3
2012/9/23 3:14,0.6,2,0.7,2,0.5,2
2012/9/23 3:15,0.6,2,0.6,2,0.4,2
2012/9/23 3:16,0.6,2,0.6,2,0.8,2
2012/9/23 3:17,0.6,2,0.6,2,0.8,1
2012/9/23 3:18,0.6,2,0.6,2,0.8,4
2012/9/23 3:19,0.6,2,0.6,2,0.9,4
2012/9/23 3:20,0.5,3,0.6,2,0.9,7
2012/9/23 3:21,0.4,3,0.5,2,0.8,6
2012/9/23 3:22,0.4,3,0.4,2,0.9,6
2012/9/23 3:23,0.4,4,0.4,2,1.4,5
2012/9/23 3:24,0.4,4,0.4,2,2,5
2012/9/23 3:25,0.5,4,0.5,2,2.2,5
2012/9/23 3:26,0.6,5,0.6,2,1.6,4
2012/9/23 3:27,0.7,5,0.7,5,1.6,3
2012/9/23 3:28,0.8,5,0.8,5,1.9,3
2012/9/23 3:29,0.9,4,0.9,5,2,2
2012/9/23 3:30,1,4,1,4,2.1,4
2012/9/23 3:31,1.1,4,1.1,4,2,3
2012/9/23 3:32,1.3,4,1.3,4,3.2,3
2012/9/23 3:33,1.5,3,1.5,4,3.3,4
2012/9/23 3:34,1.6,3,1.6,3,2.9,3
2012/9/23 3:35,1.6,3,1.6,3,3,2
2012/9/23 3:36,1.7,3,1.7,3,2.5,2
2012/9/23 3:37,1.7,2,1.7,3,2.6,16
2012/9/23 3:38,1.8,2,1.8,2,3.2,16
2012/9/23 13:02,5.1,16,5.1,16,5.2,16
2012/9/23 13:03,4.5,15,6.1,16,9.1,15
2012/9/23 13:04,4.7,16,4.9,16,8.6,16
2012/9/23 13:05,5,16,5,16,7.4,15
2012/9/23 13:06,4.5,15,5,16,5.7,15
2012/9/23 13:07,4,15,4.4,16,3.5,14
2012/9/23 13:08,3.6,15,4,16,2.4,16
2012/9/23 13:09,3.3,15,3.5,16,2,14
2012/9/23 13:10,3,15,3.2,16,2,13
2012/9/23 13:11,2.8,15,3,16,2.2,15
2012/9/23 13:12,2.6,15,2.8,16,1.5,16
2012/9/23 13:13,2.3,15,2.5,16,1.8,16
2012/9/23 13:14,1.8,15,2.2,16,1.8,1
2012/9/23 13:15,1.3,15,1.8,16,0.8,13
2012/9/23 13:16,1.1,15,1.3,15,1.4,16
2012/9/23 13:17,1.1,15,1.1,15,6.3,12
2012/9/23 13:18,1.4,15,1.4,15,8.1,16
2012/9/23 13:19,1.8,15,1.8,15,7.5,16
2012/9/23 13:20,2,15,2,15,7.6,14
2012/9/23 13:21,2.4,15,2.4,15,9.9,15
2012/9/23 13:22,2.9,15,2.9,15,8.4,1
2012/9/23 13:23,3.2,15,3.2,15,7.7,14
2012/9/23 13:24,3.5,15,3.5,15,7.1,16
2012/9/23 13:25,4.1,15,4.1,15,9.5,15
2012/9/23 13:26,4.5,15,4.5,15,8.3,15
2012/9/23 13:27,5,15,5,15,9.9,15
2012/9/23 13:28,4.9,15,5,15,7,15
2012/9/23 13:29,4.8,15,4.9,15,6.7,15
2012/9/23 13:30,4.7,15,4.9,15,6.4,14
2012/9/23 13:31,4.4,15,4.7,15,4.5,16
2012/9/23 13:32,4.2,15,4.3,15,5.8,15
2012/9/23 13:33,4.1,15,4.3,15,7.7,15
2012/9/23 13:34,4.1,15,4.1,15,6.1,15
2012/9/23 13:35,3.9,15,4.1,15,6.9,14
2012/9/23 13:36,3.8,15,3.9,15,6.2,14
2012/9/23 13:37,3.4,15,3.7,15,4.3,16
2012/9/23 13:38,3.2,15,3.4,15,3.9,15
2012/9/23 13:39,2.9,15,3.2,15,2.1,14
2012/9/23 13:40,2.8,15,2.8,15,2.6,1
2012/9/23 13:41,2.7,15,2.8,15,2.2,14
2012/9/23 13:42,2.5,15,2.7,15,3.3,14
2012/9/23 13:43,2.2,15,2.4,15,2.6,3
2012/9/23 13:44,2.2,15,2.2,15,5.1,15
2012/9/23 13:45,1.8,15,2.1,15,1.4,16
2012/9/23 13:46,1.7,15,1.8,15,6.7,15
2012/9/23 13:47,1.6,15,1.7,15,3.1,16
2012/9/23 13:48,1.6,16,1.6,15,5.5,16
2012/9/23 13:49,1.7,16,1.7,15,5,1
2012/9/23 13:50,1.8,16,1.8,15,5.5,1
2012/9/23 13:51,2.1,16,2.1,15,6,16
2012/9/23 13:52,2.6,16,2.6,16,9.3,15
2012/9/23 13:53,3.2,16,3.2,16,10.7,15
2012/9/23 13:54,3.8,16,3.8,16,12.1,16
2012/9/23 13:55,4.3,16,4.3,16,10.1,16
2012/9/23 13:56,4.6,16,4.6,16,8.7,15
2012/9/23 13:57,5,16,5,16,6.9,16
2012/9/23 13:58,5.1,16,5.1,16,7.2,16
2012/9/23 13:59,5.2,15,5.2,16,5,15
2012/9/23 14:00,5.4,15,5.4,15,5.8,16
2012/9/23 14:01,5.3,15,5.4,15,6.3,14
2012/9/23 14:02,5,15,5.2,15,4.9,16
2012/9/23 14:03,4.6,15,4.9,15,5.5,16
2012/9/23 14:04,4.2,15,4.5,15,6,15
2012/9/23 14:05,4,15,4.1,15,8.6,16
2012/9/23 14:06,3.9,15,4,15,8.1,16
2012/9/23 14:07,4,15,4,15,8.6,15
2012/9/23 14:08,4.1,15,4.1,15,8.1,14
2012/9/23 14:09,4.1,15,4.1,15,5.1,16
2012/9/23 14:10,3.9,15,4.1,15,4.1,15
2012/9/23 14:11,3.8,15,3.9,15,4.3,14
2012/9/23 14:12,3.8,16,3.8,15,5.1,1
2012/9/23 14:13,3.6,16,3.8,15,4.2,16
2012/9/23 14:14,3.3,16,3.6,15,2.1,16
2012/9/23 14:15,2.9,16,3.3,15,2,1
2012/9/23 14:16,2.6,16,2.8,15,3,2
2012/9/23 14:17,2.2,16,2.6,15,2.5,15
2012/9/23 14:18,1.9,1,2.1,15,4.1,3
2012/9/23 14:19,1.8,1,1.8,15,3.2,2
2012/9/23 14:20,1.8,1,1.9,15,4.3,2
2012/9/23 14:21,1.8,1,1.8,15,3.1,16
2012/9/23 14:22,1.7,1,1.8,16,2.7,11
2012/9/23 14:23,1.8,16,1.8,16,4.3,12
2012/9/23 14:24,2,16,2,16,5.6,9
2012/9/23 14:25,1.9,15,2,16,1,12
2012/9/23 14:26,1.9,14,2,16,1.8,11
2012/9/23 14:27,1.9,14,1.9,16,1.8,15
2012/9/23 14:28,2.1,14,2.1,14,6.1,2
2012/9/23 14:29,2.4,14,2.4,14,6.9,15
2012/9/23 14:30,2.5,14,2.6,14,8.1,16
2012/9/23 14:31,2.8,14,2.8,14,6.8,13
2012/9/23 14:32,2.8,14,2.9,14,4.4,16
2012/9/23 14:33,2.9,15,2.9,14,4.3,16
2012/9/23 14:34,2.9,15,2.9,14,3.9,16
2012/9/23 14:35,2.9,15,2.9,14,2.4,15
2012/9/23 14:36,3.1,16,3.1,16,4.5,2
2012/9/23 14:37,3.4,16,3.4,16,6.3,15
2012/9/23 14:38,3.4,16,3.4,16,8.3,16
2012/9/23 14:39,3.4,16,3.4,16,6.9,16
2012/9/23 14:40,3.3,16,3.3,16,7.1,16
2012/9/23 14:41,3.3,16,3.3,16,6.5,15
2012/9/23 14:42,3.3,16,3.3,16,7,10
2012/9/23 14:43,3.2,15,3.4,16,5.2,11
2012/9/23 14:44,3.2,15,3.2,16,5.4,15
2012/9/23 14:45,3.3,16,3.3,16,2.6,4
2012/9/23 14:46,3.2,16,3.3,16,2.7,1
2012/9/23 14:47,3.1,16,3.2,16,3.2,1
2012/9/23 14:48,2.9,16,3,16,6.5,1
2012/9/23 14:49,2.9,16,2.9,16,7.5,16
2012/9/23 14:50,2.7,16,2.9,16,6,15
2012/9/23 14:51,2.7,16,2.7,16,6.7,15
2012/9/23 14:52,2.8,16,2.8,16,5.8,16
2012/9/23 14:53,2.9,16,2.9,15,6.2,1
2012/9/23 14:54,3,16,3,15,6.8,1
2012/9/23 14:55,3.1,16,3.1,16,6.9,1
2012/9/23 14:56,3.3,16,3.3,16,7.2,15
2012/9/23 14:57,3.4,16,3.4,16,7.6,15
2012/9/23 14:58,3.7,16,3.7,16,9.5,16
2012/9/23 14:59,3.6,16,3.7,16,7,16
2012/9/23 15:00,3.8,16,3.8,16,7.6,16
2012/9/23 15:01,3.8,16,3.9,16,6.4,16
2012/9/23 15:02,4,16,4,16,7.8,16
2012/9/23 15:03,4.1,16,4.1,16,8.2,16
2012/9/23 15:04,4.2,16,4.2,16,5.2,14
2012/9/23 15:05,4.1,16,4.2,16,5.8,16
2012/9/23 15:06,4,16,4.1,16,4.3,16
2012/9/23 15:07,4.2,16,4.2,16,7.8,16
2012/9/23 15:08,4.1,16,4.2,16,7.5,1
2012/9/23 15:09,4.2,16,4.2,16,8.9,16
2012/9/23 15:10,4.5,16,4.5,16,9.8,15
2012/9/23 15:11,4.5,16,4.5,16,8.5,15
2012/9/23 15:12,4.1,16,4.5,16,5.2,16
2012/9/23 15:13,4,16,4.1,16,7,15
2012/9/23 15:14,4.2,16,4.2,16,9,1
2012/9/23 15:15,4.6,16,4.6,16,9.3,16
2012/9/23 15:16,4.8,16,4.8,16,6.3,16
2012/9/23 15:17,4.9,16,4.9,16,9.4,15
2012/9/23 15:18,5,16,5,16,9.3,16
2012/9/23 15:19,4.8,16,5,16,7.4,15
2012/9/23 15:20,4.5,16,4.8,16,5.2,15
2012/9/23 15:21,4.6,16,4.6,16,8.7,14
2012/9/23 15:22,4.8,16,4.8,16,8.5,15
2012/9/23 15:23,4.6,15,4.8,16,2.9,15
2012/9/23 15:24,4.3,16,4.6,16,5,16
2012/9/23 15:25,4.1,15,4.3,16,8.1,14
2012/9/23 15:26,4.1,15,4.1,16,7.1,15
2012/9/23 15:27,3.7,16,4.1,16,5.6,16
2012/9/23 15:28,3.6,16,3.7,16,6.9,16
2012/9/23 15:29,3.6,16,3.7,16,8.6,15
2012/9/23 15:30,3.6,16,3.7,16,6.3,1
2012/9/23 15:31,3.5,16,3.6,16,6.8,16
2012/9/23 15:32,3.5,16,3.5,16,7.6,16
2012/9/23 15:33,3.7,16,3.7,15,7.6,16
2012/9/23 15:34,3.8,16,3.8,16,6.4,16
2012/9/23 15:35,3.8,16,3.8,15,8.5,16
2012/9/23 15:36,3.9,16,3.9,15,7.5,15
2012/9/23 15:37,4,16,4,16,6.4,15
2012/9/23 15:38,3.9,16,4,16,6.4,16
2012/9/23 15:39,4,16,4,16,10.1,15
2012/9/23 15:40,4.3,15,4.3,15,9,16
2012/9/23 15:41,4.3,15,4.4,15,7.1,15
2012/9/23 15:42,4.2,15,4.3,15,4.8,16
2012/9/23 15:43,4.1,15,4.2,15,6.8,16
2012/9/23 15:44,4.3,15,4.3,15,9.5,16
2012/9/23 15:45,4.2,15,4.3,15,8.9,16
2012/9/23 15:46,4.1,15,4.3,15,6.8,1
2012/9/23 15:47,4,16,4.1,15,6.3,1
2012/9/23 15:48,4.5,16,4.5,16,11,15
2012/9/23 15:49,4.7,16,4.8,16,9.8,16
2012/9/23 15:50,4.5,16,4.6,16,8.6,16
2012/9/23 15:51,4.5,16,4.5,16,6.8,16
2012/9/23 15:52,4.7,16,4.7,16,7.9,16
2012/9/23 15:53,5,16,5,16,11.7,16
2012/9/23 15:54,5.2,16,5.2,16,10.9,16
2012/9/23 15:55,5.3,16,5.4,16,10.9,16
2012/9/23 15:56,5.4,16,5.4,16,7.8,1
2012/9/23 15:57,5.9,16,5.9,16,13.8,15
2012/9/23 15:58,5.5,16,5.9,16,9.5,15
2012/9/23 15:59,5.4,16,5.5,16,10,15
2012/9/23 16:00,5.6,16,5.6,16,8.7,1
2012/9/23 16:01,5.7,16,5.7,16,8.1,1
2012/9/23 16:02,5.6,16,5.7,16,6.3,15
2012/9/23 16:03,5.5,16,5.6,16,9.1,16
2012/9/23 16:04,5.4,16,5.5,16,7.5,16
2012/9/23 16:05,5.1,16,5.3,16,6.5,15
2012/9/23 16:06,5.3,16,5.3,16,9.8,16
2012/9/23 16:07,5,16,5.2,16,11.1,16
2012/9/23 16:08,5.2,16,5.2,16,10.6,16
2012/9/23 16:09,5.3,16,5.3,16,10.7,16
2012/9/23 16:10,5.3,16,5.3,16,11,16
2012/9/23 16:11,5.3,16,5.4,16,8.3,2
2012/9/23 16:12,5.6,16,5.7,16,13.9,15
2012/9/23 16:13,5.3,16,5.6,16,6.2,1
2012/9/23 16:14,5.4,16,5.4,16,10.5,15
2012/9/23 16:15,5.6,16,5.6,16,10.3,15
2012/9/23 16:16,5.6,16,5.7,16,10.1,16
2012/9/23 16:17,5.3,16,5.6,16,4.7,16
2012/9/23 16:18,5.2,16,5.4,16,7.1,16
2012/9/23 16:19,5,16,5.2,16,8.3,16
2012/9/23 16:20,4.9,16,5.1,16,8.6,16
2012/9/23 16:21,5.2,16,5.2,16,13.1,16
2012/9/23 16:22,5.1,16,5.1,16,7.8,16
2012/9/23 16:23,5.5,16,5.5,16,9.7,16
2012/9/23 16:24,5.6,16,5.6,16,11.6,15
2012/9/23 16:25,5.7,16,5.7,16,10.5,16
2012/9/23 16:26,5.6,16,5.7,16,7.9,15
2012/9/23 16:27,5.6,16,5.6,16,5.6,15
2012/9/23 16:28,5.6,16,5.6,16,7.4,16
2012/9/23 16:29,5.7,16,5.7,16,9.5,15
2012/9/23 16:30,5.8,16,5.8,16,8.5,1
2012/9/23 16:31,5.6,16,5.8,16,11.4,15
2012/9/23 16:32,5.4,16,5.6,16,8.1,16
2012/9/23 16:33,5.2,16,5.4,16,6.7,16
2012/9/23 16:34,4.7,16,5.1,16,5.5,15
2012/9/23 16:35,4.5,16,4.7,16,7.4,16
2012/9/23 16:36,4.4,16,4.5,16,8.1,16
2012/9/23 16:37,4.7,16,4.7,16,8.7,16
2012/9/23 16:38,4.6,16,4.7,16,7.7,15
2012/9/23 16:39,4.5,16,4.6,16,7,15
2012/9/23 16:40,4.4,16,4.5,16,5.6,16
2012/9/23 16:41,4.1,16,4.3,16,5,15
2012/9/23 16:42,3.8,16,4.1,16,3.1,1
2012/9/23 16:43,3.8,15,3.9,16,6.1,13
2012/9/23 16:44,3.7,15,3.7,16,4.8,12
2012/9/23 16:45,3.6,15,3.8,16,4.9,12
2012/9/23 16:46,3.6,15,3.6,16,6.9,16
2012/9/23 16:47,3.3,15,3.5,16,7.8,16
2012/9/23 16:48,3.5,15,3.5,16,10.3,16
2012/9/23 16:49,3.4,14,3.6,16,6.2,13
2012/9/23 16:50,3.3,14,3.4,16,6.5,15
2012/9/23 16:51,3.3,15,3.3,16,5.8,16
2012/9/23 16:52,3.5,15,3.5,16,5.4,16
2012/9/23 16:53,3.6,15,3.6,15,7.8,15
2012/9/23 16:54,3.6,15,3.6,15,6,1
2012/9/23 16:55,3.8,16,3.8,16,7.6,16
2012/9/23 16:56,3.9,16,3.9,16,10.1,1
2012/9/23 16:57,4.1,16,4.1,16,8.4,16
2012/9/23 16:58,4,16,4.1,16,7.5,2
2012/9/23 16:59,4.1,16,4.1,16,7.4,1
2012/9/23 17:00,4.3,16,4.3,16,7.4,16
2012/9/23 17:01,4.4,16,4.4,16,9.2,15
2012/9/23 17:02,4.7,16,4.7,16,9.4,16
2012/9/23 17:03,5,16,5,16,10.7,15
2012/9/23 17:04,5.3,16,5.3,16,9.2,16
2012/9/23 17:05,5.3,16,5.3,16,10,14
2012/9/23 17:06,5.3,16,5.3,16,9.2,16
2012/9/23 17:07,5.1,16,5.3,16,9.3,16
2012/9/23 17:08,5,16,5.1,16,4.2,16
2012/9/23 17:09,4.9,16,5,16,6.8,15
2012/9/23 17:10,4.8,16,4.9,16,9,16
2012/9/23 17:11,5.1,16,5.1,16,11.5,16
2012/9/23 17:12,4.9,16,5.1,16,8.1,16
2012/9/23 17:13,4.9,16,5,16,11.5,15
2012/9/23 17:14,4.9,15,5,16,9.2,15
2012/9/23 17:15,5,16,5,16,9.1,16
2012/9/23 17:16,5.1,15,5.2,16,8.6,16
2012/9/23 17:17,5.1,15,5.1,15,7.1,16
2012/9/23 17:18,5.4,15,5.4,15,8.7,15
2012/9/23 17:19,5.4,15,5.4,15,7.9,15
2012/9/23 17:20,5.2,15,5.4,15,3.7,14
2012/9/23 17:21,5,15,5.2,15,9,15
2012/9/23 17:22,5.1,15,5.2,15,7.8,16
2012/9/23 17:23,4.9,15,5.1,15,7,14
2012/9/23 17:24,4.7,15,4.9,15,6.1,16
2012/9/23 17:25,4.5,15,4.7,15,5.6,15
2012/9/23 17:26,4.2,15,4.5,15,4.9,13
2012/9/23 17:27,4.1,15,4.3,15,4.5,14
2012/9/23 17:28,3.7,15,4.1,15,2.1,16
2012/9/23 17:29,3.5,15,3.7,15,6.2,16
2012/9/23 17:30,3.8,15,3.8,15,8.4,1
2012/9/23 17:31,3.8,15,3.9,15,10.1,15
2012/9/23 17:32,3.6,15,3.8,15,5.6,1
2012/9/23 17:33,3.6,15,3.6,15,5.1,16
2012/9/23 17:34,3.6,16,3.6,15,6.9,16
2012/9/23 17:35,3.5,16,3.6,15,3.9,1
2012/9/23 17:36,3.5,16,3.5,15,5.8,16
2012/9/23 17:37,3.7,16,3.7,15,7.5,15
2012/9/23 17:38,4.1,16,4.1,16,8.7,16
2012/9/23 17:39,4.1,16,4.2,16,5.2,16
2012/9/23 17:40,4.2,16,4.2,16,9.3,16
2012/9/23 17:41,4.1,16,4.2,16,8.6,15
2012/9/23 17:42,4.1,16,4.2,16,6,15
2012/9/23 17:43,4.1,16,4.1,16,7.5,16
2012/9/23 17:44,4.1,15,4.1,16,9.3,15
2012/9/23 17:45,4.8,15,4.8,15,12.4,15
2012/9/23 17:46,5.2,15,5.2,15,11.3,16
2012/9/23 17:47,5.2,15,5.2,15,8.2,15
2012/9/23 17:48,5.1,15,5.2,15,8.1,16
2012/9/23 17:49,5.4,16,5.4,16,8.5,15
2012/9/23 17:50,5.4,16,5.4,16,7.8,15
2012/9/23 17:51,5.3,16,5.3,16,7.1,16
2012/9/23 17:52,5.5,16,5.5,16,8.9,16
2012/9/23 17:53,5.5,16,5.5,16,6.8,1
2012/9/23 17:54,5.4,16,5.6,16,5.6,15
2012/9/23 17:55,4.8,16,5.3,16,5.4,15
2012/9/23 17:56,4.5,16,4.8,16,7.1,1
2012/9/23 17:57,4.4,16,4.5,16,7.5,15
2012/9/23 17:58,4.6,16,4.6,16,9.5,15
2012/9/23 17:59,4.5,16,4.6,16,7,16
2012/9/23 18:00,4.4,16,4.5,16,6.7,15
2012/9/23 18:01,4.3,16,4.4,16,9.2,16
2012/9/23 18:02,4.1,16,4.3,16,5,14
2012/9/23 18:03,4.2,16,4.2,16,8.1,14
2012/9/23 18:04,4.3,15,4.3,16,9.4,14
2012/9/23 18:05,4.4,16,4.4,16,9.2,16
2012/9/23 18:06,4.4,15,4.5,16,6.5,15
2012/9/23 18:07,4.3,16,4.4,16,7.5,2
2012/9/23 18:08,4,16,4.3,16,5.4,2
2012/9/23 18:09,3.9,16,4,16,7.8,16
2012/9/23 18:10,4,16,4,16,9.4,15
2012/9/23 18:11,4,16,4.1,16,6.1,1
2012/9/23 18:12,4.2,16,4.2,16,8.9,16
2012/9/23 18:13,4.4,16,4.4,16,10.1,16
2012/9/23 18:14,4.4,16,4.5,16,8.4,15
2012/9/23 18:15,4.5,16,4.5,16,9.4,15
2012/9/23 18:16,4.7,16,4.7,16,10.2,15
2012/9/23 18:17,5,16,5,16,9,15
2012/9/23 18:18,5.3,15,5.3,15,8.3,15
2012/9/23 18:19,5.4,15,5.4,15,8.5,16
2012/9/23 18:20,5.4,15,5.4,15,8.2,16
2012/9/23 18:21,5.5,15,5.5,15,7.7,15
2012/9/23 18:22,5.3,15,5.5,15,4.5,16
2012/9/23 18:23,5,15,5.3,15,5.5,1
2012/9/23 18:24,4.9,15,5,15,7.1,16
2012/9/23 18:25,4.8,15,4.9,15,9.4,16
2012/9/23 18:26,4.7,15,4.8,15,7.1,16
2012/9/23 18:27,4.5,15,4.7,15,7.1,16
2012/9/23 18:28,4.4,16,4.4,15,6.7,15
2012/9/23 18:29,4.3,15,4.3,15,8.2,15
2012/9/23 18:30,4.3,16,4.3,15,8.7,15
2012/9/23 18:31,4.3,16,4.3,15,10.7,15
2012/9/23 18:32,4.5,16,4.5,15,10,15
2012/9/23 18:33,4.7,16,4.7,15,9.8,15
2012/9/23 18:34,5,15,5,16,12.8,15
2012/9/23 18:35,5.2,15,5.2,15,10.9,16
2012/9/23 18:36,5.2,15,5.3,15,9.2,15
2012/9/23 18:37,5.4,15,5.4,15,7.9,15
2012/9/23 18:38,5.4,15,5.5,15,8.6,1
2012/9/23 18:39,5.3,15,5.4,15,6.9,16
2012/9/23 18:40,5.3,15,5.3,15,10.3,15
2012/9/23 18:41,5.4,15,5.5,15,11.7,15
2012/9/23 18:42,5.2,15,5.4,15,4.9,2
2012/9/23 18:43,5.2,15,5.3,15,8.6,15
2012/9/23 18:44,4.9,15,5.2,15,7,15
2012/9/23 18:45,4.7,15,4.9,15,7.8,15
2012/9/23 18:46,4.9,15,4.9,15,9.3,16
2012/9/23 18:47,4.9,15,4.9,15,8.4,15
2012/9/23 18:48,4.9,15,4.9,15,8.3,15
2012/9/23 18:49,4.9,15,4.9,15,7.4,15
2012/9/23 18:50,4.7,15,4.9,15,6.4,14
2012/9/23 18:51,4.5,15,4.7,15,8.2,15
2012/9/23 18:52,4.6,15,4.6,15,5.7,15
2012/9/23 18:53,4.4,15,4.5,15,8.1,15
2012/9/23 18:54,4.6,15,4.6,15,9.1,15
2012/9/23 18:55,4.5,15,4.6,15,6.4,15
2012/9/23 18:56,4.2,15,4.5,15,7.6,16
2012/9/23 18:57,4.2,15,4.3,15,6.9,16
2012/9/23 18:58,4,15,4.2,15,6.5,16
2012/9/23 18:59,4.1,15,4.1,15,7.9,16
2012/9/23 19:00,4.1,15,4.1,15,7.9,1
2012/9/23 19:01,4.3,15,4.3,15,9.7,15
2012/9/23 19:02,4.5,15,4.5,15,7.1,15
2012/9/23 19:03,4.6,15,4.6,15,7.2,1
2012/9/23 19:04,4.4,15,4.5,15,6.5,16
2012/9/23 19:05,4.2,15,4.4,15,4.4,14
2012/9/23 19:06,4.2,15,4.3,15,7.5,13
2012/9/23 19:07,4,15,4.2,15,6.4,16
2012/9/23 19:08,4.1,15,4.1,15,8.1,15
2012/9/23 19:09,4.4,15,4.4,15,9.7,16
2012/9/23 19:10,4.6,15,4.6,15,9,14
2012/9/23 19:11,4.4,15,4.6,15,10.3,15
2012/9/23 19:12,4.3,15,4.4,15,7,16
2012/9/23 19:13,4.3,15,4.4,15,6.1,15
2012/9/23 19:14,4.2,15,4.2,15,7.2,15
2012/9/23 19:15,4.4,15,4.4,15,6.7,15
2012/9/23 19:16,4.4,15,4.4,15,7.4,1
2012/9/23 19:17,4.5,15,4.6,15,5.7,2
2012/9/23 19:18,4.3,16,4.5,15,3.7,16
2012/9/23 19:19,3.8,16,4.3,15,2.7,14
2012/9/23 19:20,3.4,15,3.8,15,3,14
2012/9/23 19:21,2.9,16,3.4,15,0.6,15
2012/9/23 19:22,2.6,16,2.9,15,1.4,1
2012/9/23 19:23,2.4,16,2.6,15,2.6,3
2012/9/23 19:24,2.2,1,2.4,15,2.5,5
2012/9/23 19:25,2,1,2.2,15,2.1,6
2012/9/23 19:26,1.7,1,1.9,15,3.6,1
2012/9/23 19:27,1.6,1,1.7,15,4.7,14
2012/9/23 19:28,1.6,16,1.6,16,6.4,13
2012/9/23 19:29,1.6,16,1.6,16,5.1,14
2012/9/23 19:30,1.7,1,1.7,15,5.2,15
2012/9/23 19:31,1.8,16,1.8,16,3,1
2012/9/23 19:32,2,16,2,16,4.5,16
2012/9/23 19:33,2.2,16,2.2,16,5.2,16
2012/9/23 19:34,2.3,16,2.3,16,5.2,16
2012/9/23 19:35,2.5,15,2.5,15,6.4,14
2012/9/23 19:36,2.8,15,2.8,15,8.2,15
2012/9/23 19:37,3.2,15,3.2,15,9.4,15
2012/9/23 19:38,3.3,15,3.3,15,6.1,15
2012/9/23 19:39,3.3,15,3.3,15,3.7,16
2012/9/23 19:40,3.2,16,3.3,15,2.1,1
2012/9/23 19:41,3.4,15,3.4,15,7.1,16
2012/9/23 19:42,3.6,16,3.6,16,6.7,1
2012/9/23 19:43,3.7,16,3.7,16,7.2,16
2012/9/23 19:44,3.8,15,3.9,15,7.7,15
2012/9/23 19:45,3.7,15,3.8,15,3.5,16
2012/9/23 19:46,3.4,15,3.7,15,3.3,13
2012/9/23 19:47,3.1,15,3.3,15,3.5,16
2012/9/23 19:48,2.9,15,3.1,15,3.1,16
2012/9/23 19:49,3.1,15,3.1,15,4.8,15
2012/9/23 19:50,3.2,15,3.2,15,4.1,13
2012/9/23 19:51,2.9,14,3.2,15,2.7,12
2012/9/23 19:52,2.7,14,2.9,15,3.5,15
2012/9/23 19:53,2.5,14,2.7,15,3.5,14
2012/9/23 19:54,2.3,14,2.4,15,3.6,16
2012/9/23 19:55,2.3,15,2.3,15,3.7,16
2012/9/23 19:56,2.2,14,2.3,15,1.9,15
2012/9/23 19:57,2.1,14,2.2,15,3,16
2012/9/23 19:58,2.2,14,2.2,15,3.3,16
2012/9/23 19:59,2.1,15,2.2,15,4.9,16
2012/9/23 20:00,2,15,2.1,15,3.3,1
2012/9/23 20:01,1.9,15,2,14,2.9,2
2012/9/23 20:02,1.9,15,2,14,2.9,15
2012/9/23 20:03,2,15,2,14,3.1,13
2012/9/23 20:04,2,15,2,14,4.2,13
2012/9/23 20:05,2,15,2,15,3.1,12
2012/9/23 20:06,2.1,15,2.1,14,3.1,13
2012/9/23 20:07,2.1,14,2.1,14,2.1,12
2012/9/23 20:08,2.1,14,2.1,15,3.1,13
2012/9/23 20:09,2,14,2.1,15,2.9,13
2012/9/23 20:10,2.1,13,2.1,14,2.9,13
2012/9/23 20:11,2.1,13,2.1,14,2.4,13
2012/9/23 20:12,2.1,13,2.1,14,2.4,15
2012/9/23 20:13,2,13,2,14,3,14
2012/9/23 20:14,1.9,13,2,14,3.7,16
2012/9/23 20:15,1.9,14,1.9,14,3,16
2012/9/23 20:16,1.8,14,1.9,15,2.9,14
2012/9/23 20:17,1.9,14,1.9,14,3.1,15
2012/9/23 20:18,1.8,14,1.9,14,1.8,14
2012/9/23 20:19,2,14,2,14,6.8,16
2012/9/23 20:20,2.2,15,2.2,15,5.8,16
2012/9/23 20:21,2.4,15,2.4,15,6,15
2012/9/23 20:22,2.6,15,2.6,15,6.5,14
2012/9/23 20:23,2.8,15,2.8,15,6.1,14
2012/9/23 20:24,2.9,15,2.9,15,5,15
2012/9/23 20:25,3.1,15,3.1,15,5,15
2012/9/23 20:26,3.3,15,3.3,15,5.8,16
2012/9/23 20:27,3.4,15,3.4,15,6.1,16
2012/9/23 20:28,3.5,15,3.5,15,3.8,16
2012/9/23 20:29,3.4,15,3.6,15,4.9,13
2012/9/23 20:30,3.4,15,3.5,15,6,15
2012/9/23 20:31,3.3,15,3.4,15,3.6,16
2012/9/23 20:32,3,15,3.3,15,3.3,13
2012/9/23 20:33,2.7,15,3,15,1.3,12
2012/9/23 20:34,2.5,15,2.7,15,1.9,14
2012/9/23 20:35,2.2,14,2.5,15,1.6,12
2012/9/23 20:36,2,14,2.2,15,2.7,12
2012/9/23 20:37,2,14,2,15,6.4,16
2012/9/23 20:38,2,14,2,15,4.5,14
2012/9/23 20:39,1.9,14,2,15,2.6,12
2012/9/23 20:40,1.8,14,1.9,15,3.6,12
2012/9/23 20:41,1.7,13,1.8,15,2,14
2012/9/23 20:42,1.7,13,1.7,15,1.8,16
2012/9/23 20:43,1.8,13,1.8,15,2.5,16
2012/9/23 20:44,2,14,2,15,4.3,15
2012/9/23 20:45,2.1,14,2.1,14,5.4,16
2012/9/23 20:46,2.2,14,2.2,14,5,15
2012/9/23 20:47,2.2,14,2.3,14,3.8,16
2012/9/23 20:48,2.2,14,2.2,14,3.6,15
2012/9/23 20:49,2.1,15,2.2,14,2.1,16
2012/9/23 20:50,2.1,15,2.1,14,2.2,15
2012/9/23 20:51,2.2,15,2.2,14,4.8,16
2012/9/23 20:52,2.4,15,2.4,15,4.4,15
2012/9/23 20:53,2.6,15,2.6,15,4.7,14
2012/9/23 20:54,2.6,15,2.6,15,5.7,16
2012/9/23 20:55,2.7,15,2.7,15,6.8,14
2012/9/23 20:56,2.8,15,2.8,15,7.4,16
2012/9/23 20:57,2.8,15,2.9,15,6.8,15
2012/9/23 20:58,2.9,15,2.9,15,4.8,15
2012/9/23 20:59,3,15,3,15,4.2,16
2012/9/23 21:00,3.1,15,3.1,15,3.7,14
2012/9/23 21:01,2.9,15,3,15,2,14
2012/9/23 21:02,2.7,15,2.9,15,1.6,15
2012/9/23 21:03,2.5,15,2.6,15,1.8,14
2012/9/23 21:04,2.2,15,2.4,15,3,16
2012/9/23 21:05,2.1,15,2.2,15,4.3,15
2012/9/23 21:06,1.9,15,2.1,15,3.7,14
2012/9/23 21:07,1.9,15,1.9,15,4.1,15
2012/9/23 21:08,1.9,14,1.9,15,4.5,15
2012/9/23 21:09,1.8,15,1.9,15,3.9,15
2012/9/23 21:10,1.7,15,1.8,15,2,2
2012/9/23 21:11,1.8,15,1.8,15,4.4,15
2012/9/23 21:12,1.8,15,1.8,15,3,16
2012/9/23 21:13,1.8,15,1.9,15,2.6,13
2012/9/23 21:14,1.8,15,1.8,15,2.6,13
2012/9/23 21:15,1.6,15,1.8,15,1.5,11
2012/9/23 21:16,1.6,15,1.6,15,3.2,16
2012/9/23 21:17,1.6,15,1.6,15,3.7,15
2012/9/23 21:18,1.4,15,1.5,14,3.2,15
2012/9/23 21:19,1.6,15,1.6,15,5.5,15
2012/9/23 21:20,1.8,15,1.8,15,5.2,15
2012/9/23 21:21,1.8,15,1.9,15,3.7,15
2012/9/23 21:22,2,16,2,16,4.9,16
2012/9/23 21:23,2.4,16,2.4,16,7.2,15
2012/9/23 21:24,2.7,16,2.7,16,6.2,15
2012/9/23 21:25,3.2,16,3.2,16,10.1,15
2012/9/23 21:26,3.6,16,3.6,16,9.1,16
2012/9/23 21:27,3.7,16,3.7,16,5.8,15
2012/9/23 21:28,3.8,15,3.8,15,4.9,13
2012/9/23 21:29,3.8,15,3.8,15,7.2,16
2012/9/23 21:30,3.7,15,3.8,15,5.6,16
2012/9/23 21:31,3.6,15,3.7,15,2.7,14
2012/9/23 21:32,3.5,15,3.6,15,4.3,15
2012/9/23 21:33,3.3,15,3.5,15,4.5,13
2012/9/23 21:34,3.1,15,3.2,15,5,16
2012/9/23 21:35,2.6,15,3.1,15,2.2,16
2012/9/23 21:36,2.2,14,2.6,15,3.5,16
2012/9/23 21:37,2.3,14,2.3,15,5.1,15
2012/9/23 21:38,2.4,15,2.4,15,7.4,15
2012/9/23 21:39,2.6,15,2.6,15,7.2,15
2012/9/23 21:40,2.7,15,2.7,15,6.2,15
2012/9/23 21:41,2.8,15,2.8,15,4.7,14
2012/9/23 21:42,2.9,15,2.9,15,3.7,15
2012/9/23 21:43,2.9,15,2.9,15,3.1,15
2012/9/23 21:44,2.8,15,2.9,15,2.5,13
2012/9/23 21:45,2.9,14,2.9,15,2.7,11
2012/9/23 21:46,2.9,14,2.9,15,3.2,9
2012/9/23 21:47,2.6,14,2.9,15,1.1,13
2012/9/23 21:48,2.2,14,2.6,15,1.6,10
2012/9/23 21:49,1.8,13,2.2,15,0.9,4
2012/9/23 21:50,1.5,13,1.8,15,1.4,2
2012/9/23 21:51,1.5,13,1.5,15,6,16
2012/9/23 21:52,1.5,13,1.5,15,4.4,16
2012/9/23 21:53,1.4,13,1.5,15,2.4,15
2012/9/23 21:54,1.4,13,1.4,14,2.4,15
2012/9/23 21:55,1.3,14,1.4,14,2.6,12
2012/9/23 21:56,1.4,14,1.4,14,3.1,15
2012/9/23 21:57,1.6,15,1.6,14,2.9,16
2012/9/23 21:58,1.6,15,1.6,14,3.2,16
2012/9/23 21:59,1.8,15,1.8,13,3.3,15
2012/9/23 22:00,2.2,15,2.2,15,6.5,15
2012/9/23 22:01,2.2,15,2.3,15,4.9,16
2012/9/23 22:02,2.3,15,2.3,15,4.8,1
2012/9/23 22:03,2.3,15,2.3,15,2.2,14
2012/9/23 22:04,2.3,15,2.3,15,2.1,13
2012/9/23 22:05,2.2,15,2.3,15,0.9,13
2012/9/23 22:06,2,15,2.2,15,0.5,15
2012/9/23 22:07,1.8,15,2,15,0.5,14
2012/9/23 22:08,1.7,14,1.8,15,0.5,14
2012/9/23 22:09,1.5,14,1.6,15,1.1,7
2012/9/23 22:10,1.2,14,1.5,15,1.6,7
2012/9/23 22:11,1,14,1.2,15,1.4,6
2012/9/23 22:12,0.8,14,0.9,15,2,2
2012/9/23 22:13,0.7,15,0.7,15,1.6,2
2012/9/23 22:14,0.6,1,0.7,15,1.9,3
2012/9/23 22:15,0.8,3,0.8,15,2.4,5
2012/9/23 22:16,0.9,4,0.9,15,2.2,5
2012/9/23 22:17,1,4,1,15,1.4,4
2012/9/23 22:18,1,4,1,14,0.9,4
2012/9/23 22:19,1,4,1,14,1.5,10
2012/9/23 22:20,1,4,1,14,2,10
2012/9/23 22:21,1.1,4,1.1,4,1.8,11
2012/9/23 22:22,1.1,6,1.1,4,1.5,14
2012/9/23 22:23,1.1,7,1.1,4,1.4,13
2012/9/23 22:24,1.1,11,1.1,4,2.2,12
2012/9/23 22:25,1.1,11,1.1,4,2.5,10
2012/9/23 22:26,1.1,12,1.1,4,1.9,10
2012/9/23 22:27,1.1,12,1.2,12,1.5,12
2012/9/23 22:28,1.1,12,1.1,12,0.9,14
2012/9/23 22:29,1.2,12,1.2,12,2.6,13
2012/9/23 22:30,1.2,12,1.2,12,2.7,13
2012/9/23 22:31,1.3,12,1.3,12,3.8,14
2012/9/23 22:32,1.4,12,1.4,12,3.8,12
2012/9/23 22:33,1.5,12,1.5,12,2.7,14
2012/9/23 22:34,1.5,12,1.5,12,3.3,13
2012/9/23 22:35,1.6,13,1.6,12,4.1,11
2012/9/23 22:36,1.7,13,1.7,13,5.6,16
2012/9/23 22:37,1.9,13,1.9,13,4.7,1
2012/9/23 22:38,2.2,14,2.2,14,5.6,15
2012/9/23 22:39,2.3,14,2.3,14,5.8,15